<?xml version="1.0" encoding="UTF-8" standalone="no" ?>
<gpx xmlns="http://www.topografix.com/GPX/1/1" xmlns:xsi="http://www.w3.org/2001/XMLSchema-instance" xsi:schemaLocation="http://www.topografix.com/GPX/1/1 http://www.topografix.com/GPX/1/1/gpx.xsd" version="1.1" creator="VisuGPX - https://www.visugpx.com">
  <metadata>
    <name>37 Cerelles 8km</name>
    <desc><![CDATA[sans difficulté - peut se jumeler avec le parcours de 10km [url]http://www.visugpx.com/?i=1380138929[/url]]]></desc>
  </metadata>
  <trk>
    <name><![CDATA[37 Cerelles 8km]]></name>
    <trkseg>
      <trkpt lat="47.49823" lon="0.68211">
        <ele>91</ele>
        <time>1970-01-01T00:00:00Z</time>
      </trkpt>
      <trkpt lat="47.49811" lon="0.68116">
        <ele>88</ele>
        <time>1970-01-01T00:00:00Z</time>
      </trkpt>
      <trkpt lat="47.49724" lon="0.68026">
        <ele>83</ele>
        <time>1970-01-01T00:00:00Z</time>
      </trkpt>
      <trkpt lat="47.49814" lon="0.67846">
        <ele>84</ele>
        <time>1970-01-01T00:00:00Z</time>
      </trkpt>
      <trkpt lat="47.4984" lon="0.67705">
        <ele>88</ele>
        <time>1970-01-01T00:00:00Z</time>
      </trkpt>
      <trkpt lat="47.4993" lon="0.67546">
        <ele>93</ele>
        <time>1970-01-01T00:00:00Z</time>
      </trkpt>
      <trkpt lat="47.49956" lon="0.67481">
        <ele>94</ele>
        <time>1970-01-01T00:00:00Z</time>
      </trkpt>
      <trkpt lat="47.49953" lon="0.67426">
        <ele>95</ele>
        <time>1970-01-01T00:00:00Z</time>
      </trkpt>
      <trkpt lat="47.49884" lon="0.67426">
        <ele>95</ele>
        <time>1970-01-01T00:00:00Z</time>
      </trkpt>
      <trkpt lat="47.49866" lon="0.67335">
        <ele>96</ele>
        <time>1970-01-01T00:00:00Z</time>
      </trkpt>
      <trkpt lat="47.49866" lon="0.67224">
        <ele>101</ele>
        <time>1970-01-01T00:00:00Z</time>
      </trkpt>
      <trkpt lat="47.49507" lon="0.67438">
        <ele>95</ele>
        <time>1970-01-01T00:00:00Z</time>
      </trkpt>
      <trkpt lat="47.49498" lon="0.6743">
        <ele>96</ele>
        <time>1970-01-01T00:00:00Z</time>
      </trkpt>
      <trkpt lat="47.49324" lon="0.67516">
        <ele>97</ele>
        <time>1970-01-01T00:00:00Z</time>
      </trkpt>
      <trkpt lat="47.49255" lon="0.6743">
        <ele>97</ele>
        <time>1970-01-01T00:00:00Z</time>
      </trkpt>
      <trkpt lat="47.49168" lon="0.67374">
        <ele>94</ele>
        <time>1970-01-01T00:00:00Z</time>
      </trkpt>
      <trkpt lat="47.49142" lon="0.67374">
        <ele>91</ele>
        <time>1970-01-01T00:00:00Z</time>
      </trkpt>
      <trkpt lat="47.49113" lon="0.67331">
        <ele>92</ele>
        <time>1970-01-01T00:00:00Z</time>
      </trkpt>
      <trkpt lat="47.49124" lon="0.674">
        <ele>90</ele>
        <time>1970-01-01T00:00:00Z</time>
      </trkpt>
      <trkpt lat="47.4911" lon="0.67468">
        <ele>89</ele>
        <time>1970-01-01T00:00:00Z</time>
      </trkpt>
      <trkpt lat="47.49153" lon="0.67696">
        <ele>91</ele>
        <time>1970-01-01T00:00:00Z</time>
      </trkpt>
      <trkpt lat="47.49153" lon="0.67743">
        <ele>91</ele>
        <time>1970-01-01T00:00:00Z</time>
      </trkpt>
      <trkpt lat="47.49107" lon="0.67958">
        <ele>93</ele>
        <time>1970-01-01T00:00:00Z</time>
      </trkpt>
      <trkpt lat="47.4911" lon="0.68022">
        <ele>93</ele>
        <time>1970-01-01T00:00:00Z</time>
      </trkpt>
      <trkpt lat="47.48886" lon="0.68061">
        <ele>71</ele>
        <time>1970-01-01T00:00:00Z</time>
      </trkpt>
      <trkpt lat="47.48854" lon="0.67932">
        <ele>72</ele>
        <time>1970-01-01T00:00:00Z</time>
      </trkpt>
      <trkpt lat="47.48849" lon="0.67803">
        <ele>72</ele>
        <time>1970-01-01T00:00:00Z</time>
      </trkpt>
      <trkpt lat="47.48826" lon="0.67696">
        <ele>70</ele>
        <time>1970-01-01T00:00:00Z</time>
      </trkpt>
      <trkpt lat="47.4862" lon="0.67142">
        <ele>70</ele>
        <time>1970-01-01T00:00:00Z</time>
      </trkpt>
      <trkpt lat="47.48591" lon="0.67074">
        <ele>70</ele>
        <time>1970-01-01T00:00:00Z</time>
      </trkpt>
      <trkpt lat="47.48538" lon="0.67035">
        <ele>72</ele>
        <time>1970-01-01T00:00:00Z</time>
      </trkpt>
      <trkpt lat="47.4848" lon="0.66992">
        <ele>72</ele>
        <time>1970-01-01T00:00:00Z</time>
      </trkpt>
      <trkpt lat="47.48518" lon="0.66919">
        <ele>80</ele>
        <time>1970-01-01T00:00:00Z</time>
      </trkpt>
      <trkpt lat="47.48544" lon="0.6682">
        <ele>91</ele>
        <time>1970-01-01T00:00:00Z</time>
      </trkpt>
      <trkpt lat="47.48721" lon="0.66726">
        <ele>97</ele>
        <time>1970-01-01T00:00:00Z</time>
      </trkpt>
      <trkpt lat="47.48744" lon="0.66717">
        <ele>97</ele>
        <time>1970-01-01T00:00:00Z</time>
      </trkpt>
      <trkpt lat="47.48826" lon="0.66795">
        <ele>95</ele>
        <time>1970-01-01T00:00:00Z</time>
      </trkpt>
      <trkpt lat="47.48968" lon="0.66717">
        <ele>90</ele>
        <time>1970-01-01T00:00:00Z</time>
      </trkpt>
      <trkpt lat="47.48997" lon="0.66705">
        <ele>90</ele>
        <time>1970-01-01T00:00:00Z</time>
      </trkpt>
      <trkpt lat="47.49031" lon="0.66696">
        <ele>89</ele>
        <time>1970-01-01T00:00:00Z</time>
      </trkpt>
      <trkpt lat="47.49246" lon="0.66696">
        <ele>91</ele>
        <time>1970-01-01T00:00:00Z</time>
      </trkpt>
      <trkpt lat="47.49432" lon="0.6667">
        <ele>95</ele>
        <time>1970-01-01T00:00:00Z</time>
      </trkpt>
      <trkpt lat="47.49455" lon="0.6667">
        <ele>96</ele>
        <time>1970-01-01T00:00:00Z</time>
      </trkpt>
      <trkpt lat="47.49519" lon="0.66692">
        <ele>97</ele>
        <time>1970-01-01T00:00:00Z</time>
      </trkpt>
      <trkpt lat="47.49591" lon="0.66177">
        <ele>105</ele>
        <time>1970-01-01T00:00:00Z</time>
      </trkpt>
      <trkpt lat="47.496" lon="0.66151">
        <ele>105</ele>
        <time>1970-01-01T00:00:00Z</time>
      </trkpt>
      <trkpt lat="47.49629" lon="0.66138">
        <ele>106</ele>
        <time>1970-01-01T00:00:00Z</time>
      </trkpt>
      <trkpt lat="47.49655" lon="0.6613">
        <ele>106</ele>
        <time>1970-01-01T00:00:00Z</time>
      </trkpt>
      <trkpt lat="47.49713" lon="0.66108">
        <ele>106</ele>
        <time>1970-01-01T00:00:00Z</time>
      </trkpt>
      <trkpt lat="47.49742" lon="0.66172">
        <ele>106</ele>
        <time>1970-01-01T00:00:00Z</time>
      </trkpt>
      <trkpt lat="47.49806" lon="0.66215">
        <ele>105</ele>
        <time>1970-01-01T00:00:00Z</time>
      </trkpt>
      <trkpt lat="47.49869" lon="0.6625">
        <ele>105</ele>
        <time>1970-01-01T00:00:00Z</time>
      </trkpt>
      <trkpt lat="47.49962" lon="0.66378">
        <ele>104</ele>
        <time>1970-01-01T00:00:00Z</time>
      </trkpt>
      <trkpt lat="47.50029" lon="0.66503">
        <ele>107</ele>
        <time>1970-01-01T00:00:00Z</time>
      </trkpt>
      <trkpt lat="47.50064" lon="0.6655">
        <ele>109</ele>
        <time>1970-01-01T00:00:00Z</time>
      </trkpt>
      <trkpt lat="47.50104" lon="0.6658">
        <ele>109</ele>
        <time>1970-01-01T00:00:00Z</time>
      </trkpt>
      <trkpt lat="47.50333" lon="0.66687">
        <ele>104</ele>
        <time>1970-01-01T00:00:00Z</time>
      </trkpt>
      <trkpt lat="47.5038" lon="0.66692">
        <ele>103</ele>
        <time>1970-01-01T00:00:00Z</time>
      </trkpt>
      <trkpt lat="47.50426" lon="0.66679">
        <ele>104</ele>
        <time>1970-01-01T00:00:00Z</time>
      </trkpt>
      <trkpt lat="47.50452" lon="0.66881">
        <ele>103</ele>
        <time>1970-01-01T00:00:00Z</time>
      </trkpt>
      <trkpt lat="47.50426" lon="0.66928">
        <ele>102</ele>
        <time>1970-01-01T00:00:00Z</time>
      </trkpt>
      <trkpt lat="47.50414" lon="0.66992">
        <ele>101</ele>
        <time>1970-01-01T00:00:00Z</time>
      </trkpt>
      <trkpt lat="47.50429" lon="0.67138">
        <ele>101</ele>
        <time>1970-01-01T00:00:00Z</time>
      </trkpt>
      <trkpt lat="47.5042" lon="0.67293">
        <ele>100</ele>
        <time>1970-01-01T00:00:00Z</time>
      </trkpt>
      <trkpt lat="47.5038" lon="0.67404">
        <ele>96</ele>
        <time>1970-01-01T00:00:00Z</time>
      </trkpt>
      <trkpt lat="47.50342" lon="0.67516">
        <ele>96</ele>
        <time>1970-01-01T00:00:00Z</time>
      </trkpt>
      <trkpt lat="47.50284" lon="0.67589">
        <ele>97</ele>
        <time>1970-01-01T00:00:00Z</time>
      </trkpt>
      <trkpt lat="47.50252" lon="0.67687">
        <ele>101</ele>
        <time>1970-01-01T00:00:00Z</time>
      </trkpt>
      <trkpt lat="47.50223" lon="0.67863">
        <ele>100</ele>
        <time>1970-01-01T00:00:00Z</time>
      </trkpt>
      <trkpt lat="47.50206" lon="0.67988">
        <ele>101</ele>
        <time>1970-01-01T00:00:00Z</time>
      </trkpt>
      <trkpt lat="47.50206" lon="0.68061">
        <ele>101</ele>
        <time>1970-01-01T00:00:00Z</time>
      </trkpt>
      <trkpt lat="47.50188" lon="0.68108">
        <ele>100</ele>
        <time>1970-01-01T00:00:00Z</time>
      </trkpt>
      <trkpt lat="47.50177" lon="0.68185">
        <ele>99</ele>
        <time>1970-01-01T00:00:00Z</time>
      </trkpt>
      <trkpt lat="47.50162" lon="0.68237">
        <ele>99</ele>
        <time>1970-01-01T00:00:00Z</time>
      </trkpt>
      <trkpt lat="47.50145" lon="0.68267">
        <ele>99</ele>
        <time>1970-01-01T00:00:00Z</time>
      </trkpt>
      <trkpt lat="47.5009" lon="0.68245">
        <ele>100</ele>
        <time>1970-01-01T00:00:00Z</time>
      </trkpt>
      <trkpt lat="47.50006" lon="0.68215">
        <ele>98</ele>
        <time>1970-01-01T00:00:00Z</time>
      </trkpt>
      <trkpt lat="47.49924" lon="0.68194">
        <ele>98</ele>
        <time>1970-01-01T00:00:00Z</time>
      </trkpt>
      <trkpt lat="47.49858" lon="0.68202">
        <ele>96</ele>
        <time>1970-01-01T00:00:00Z</time>
      </trkpt>
    </trkseg>
  </trk>
</gpx>